Change the Weather History Date:

Thursday, January 22, 2009

  Actual Average Record
Temperature  
Mean Temperature 29 °F 31 °F  
Max Temperature 39 °F 39 °F 72 °F (1999)
Min Temperature 18 °F 24 °F -5 °F (1984)
Degree Days  
Heating Degree Days 36 34  
Month to date heating degree days 829 745  
Since 1 July heating degree days 2810 2729  
Cooling Degree Days 0 0  
Month to date cooling degree days 0 0  
Year to date cooling degree days 0 0  
Moisture  
Dew Point 17 °F    
Average Humidity 57    
Maximum Humidity 65    
Minimum Humidity 48    
Precipitation  
Precipitation 0.00 in 0.09 in 1.36 in (1997)
Month to date precipitation 1.75 1.99  
Year to date precipitation 1.75 1.99  
Snow  
Snow 0.00 in - - ()
Month to date snowfall 0.0  
Snow Depth 0.00 in    
Sea Level Pressure  
Sea Level Pressure 30.07 in    
Wind  
Wind Speed 7 mph (SSW)    
Max Wind Speed 14 mph    
Max Gust Speed 22 mph    
Visibility 10 miles    
Events      
T = Trace of Precipitation, MM = Missing Value Source: NWS Daily Summary

Daily Weather History Graph

Daily Weather History Graph

Search for Another Location

Airport or City:

Trip Planner

Search our weather history database for the weather conditions in past years. The results will help you decide how hot, cold, wet, or windy it might be!

Date:

Astronomy

Jan. 22, 2009 Rise Set
Actual Time 7:35 AM EST 5:28 PM EST
Civil Twilight 7:05 AM EST 5:57 PM EST
Nautical Twilight 6:33 AM EST 6:29 PM EST
Astronomical Twilight 6:01 AM EST 7:01 PM EST
Moon 5:08 AM EST (1/22) 2:05 PM EST (1/22)
Length of Visible Light 10h 51m
Length of Day
9h 53m
Waning Crescent, 11% of the Moon is Illuminated
Jan 22
Waning Crescent
Jan 26
New
Feb 2
First Quarter
Feb 9
Full
Feb 16
Last Quarter

Hourly Weather History & Observations

Time (EST) Temp. Windchill Dew Point Humidity Pressure Visibility Wind Dir Wind Speed Gust Speed Precip Events Conditions
12:53 AM 19.9 °F 11.1 °F 8.1 °F 60% 30.09 in 10.0 mi SSW 6.9 mph - N/A   Clear
1:53 AM 19.9 °F 14.9 °F 9.0 °F 62% 30.11 in 10.0 mi SSW 3.5 mph - N/A   Overcast
2:53 AM 21.0 °F 13.4 °F 10.0 °F 63% 30.10 in 10.0 mi South 5.8 mph - N/A   Mostly Cloudy
3:53 AM 21.9 °F 12.5 °F 10.9 °F 63% 30.09 in 10.0 mi SSW 8.1 mph - N/A   Partly Cloudy
4:53 AM 23.0 °F 13.1 °F 10.9 °F 60% 30.08 in 10.0 mi SSW 9.2 mph - N/A   Clear
5:53 AM 23.0 °F 15.8 °F 10.9 °F 60% 30.08 in 10.0 mi SSW 5.8 mph - N/A   Clear
6:53 AM 23.0 °F 13.9 °F 12.0 °F 63% 30.09 in 10.0 mi SSW 8.1 mph - N/A   Clear
7:53 AM 23.0 °F 14.7 °F 12.0 °F 63% 30.10 in 10.0 mi SSW 6.9 mph - N/A   Clear
8:53 AM 25.0 °F 15.5 °F 12.9 °F 60% 30.10 in 10.0 mi SSW 9.2 mph 16.1 mph N/A   Partly Cloudy
9:53 AM 27.0 °F 18.7 °F 14.0 °F 58% 30.11 in 10.0 mi SSW 8.1 mph - N/A   Scattered Clouds
10:24 AM 28.4 °F 21.2 °F 15.8 °F 59% 30.06 in 10.0 mi Variable 6.9 mph - N/A   Mostly Cloudy
10:41 AM 30.2 °F 22.6 °F 15.8 °F 55% 30.06 in 10.0 mi SW 8.1 mph - N/A   Scattered Clouds
10:53 AM 30.0 °F 21.7 °F 16.0 °F 56% 30.11 in 10.0 mi SW 9.2 mph - N/A   Partly Cloudy
11:53 AM 33.1 °F 25.5 °F 17.1 °F 52% 30.07 in 10.0 mi SSW 9.2 mph - N/A   Clear
12:53 PM 35.1 °F 29.3 °F 19.0 °F 52% 30.04 in 10.0 mi Variable 6.9 mph 18.4 mph N/A   Clear
1:53 PM 37.0 °F 29.8 °F 19.9 °F 50% 30.03 in 10.0 mi SSW 10.4 mph 18.4 mph N/A   Clear
2:53 PM 37.9 °F 32.1 °F 21.0 °F 51% 30.04 in 10.0 mi SSW 8.1 mph 18.4 mph N/A   Clear
3:53 PM 39.0 °F 33.4 °F 21.9 °F 50% 30.05 in 10.0 mi SW 8.1 mph - N/A   Clear
4:53 PM 39.0 °F 34.8 °F 21.9 °F 50% 30.04 in 10.0 mi SSW 5.8 mph - N/A   Clear
5:53 PM 37.0 °F 33.3 °F 21.9 °F 54% 30.04 in 10.0 mi South 4.6 mph - N/A   Clear
6:53 PM 35.1 °F 32.2 °F 21.9 °F 59% 30.04 in 10.0 mi South 3.5 mph - N/A   Clear
7:53 PM 35.1 °F 32.2 °F 21.9 °F 59% 30.05 in 10.0 mi South 3.5 mph - N/A   Clear
8:53 PM 35.1 °F 32.2 °F 21.9 °F 59% 30.05 in 10.0 mi South 3.5 mph - N/A   Clear
9:53 PM 34.0 °F 26.0 °F 21.9 °F 61% 30.04 in 10.0 mi South 10.4 mph - N/A   Clear
10:53 PM 35.1 °F 31.0 °F 21.9 °F 59% 30.05 in 10.0 mi South 4.6 mph - N/A   Clear
11:53 PM 37.0 °F 34.5 °F 21.9 °F 54% 30.04 in 10.0 mi SSW 3.5 mph - N/A   Clear